sat.trackr.live / text

‹ back to catalog

STARLINK-34776

NORAD 65037 · 2025-161Y

PAYLOAD ACTIVE UNKNOWN

§ Identity

Operator
Country
US
Launch date
2025-07-30
Launch site
AFWTR
Launch vehicle
Mass (kg)
RCS (m²)

Purposes: comms

External: N2YO · Heavens-Above · Gunter

§ Orbital elements

Epoch: 2026-09-20T22:42:24.532128Z

Period
93.85 min
Inclination
53.1562°
Eccentricity
0.0001549
Mean motion
15.34410018 rev/d
Perigee alt
461.6 km
Apogee alt
463.7 km
Semi-major
6,840.8 km
B*
4.6445e-4
RAAN
105.8957°
Arg perigee
76.9217°
Mean anomaly
283.1958°
Rev number
6,414

§ Raw data

STARLINK-347761 65037U 25161Y   26263.94611727  .00015353  00000+0  46445-3 0  99942 65037  53.1562 105.8957 0001549  76.9217 283.1958 15.34410018 64149

JSON: /api/v1/satellites/65037 · /tle

For live sub-satellite position, see the globe view (requires WebGL).

§ Visibility from observer

Set your observer location to see the next 7 days of passes ≥ 10°. The values pass through the URL so the page stays shareable.

No JS? Fill the form by hand. The geolocation button needs JavaScript.